| time (UTC) | temp F | wind direction | speed MPH | gust MPH | rain 1hr in | rain 24hr in | rain mn in | humidity % | barometer mb |
| 20260504081532 | 45 | 0 | 0.0 | 2.0 | 0.00 | 0.00 | 0.00 | 81 | 1002.3 |
| 20260504081015 | 45 | 0 | 0.0 | 2.0 | 0.00 | 0.00 | 0.00 | 81 | 1002.4 |
| 20260504080513 | 45 | 0 | 0.0 | 2.0 | 0.00 | 0.00 | 0.00 | 81 | 1002.5 |
| 20260504050511 | 51 | 234 | 1.0 | 7.0 | 0.00 | 0.00 | 0.00 | 73 | 1003.6 |
| 20260504045513 | 51 | 223 | 1.0 | 4.0 | 0.00 | 0.00 | 0.00 | 72 | 1003.7 |
| 20260504045011 | 52 | 0 | 0.0 | 2.0 | 0.00 | 0.00 | 0.00 | 71 | 1003.6 |
| 20260504044530 | 52 | 0 | 0.0 | 2.0 | 0.00 | 0.00 | 0.00 | 70 | 1003.6 |
| 20260504044014 | 52 | 0 | 0.0 | 3.0 | 0.00 | 0.00 | 0.00 | 70 | 1003.6 |
| 20260504043514 | 52 | 0 | 0.0 | 3.0 | 0.00 | 0.00 | 0.00 | 69 | 1003.6 |
| 20260504043030 | 53 | 189 | 0.0 | 4.0 | 0.00 | 0.00 | 0.00 | 69 | 1003.6 |
| 20260504042513 | 53 | 216 | 1.0 | 4.0 | 0.00 | 0.00 | 0.00 | 69 | 1003.6 |
| 20260504042013 | 53 | 209 | 0.0 | 4.0 | 0.00 | 0.00 | 0.00 | 69 | 1003.6 |
| 20260504041533 | 53 | 194 | 0.0 | 2.0 | 0.00 | 0.00 | 0.00 | 69 | 1003.7 |
| 20260504041013 | 53 | 202 | 1.0 | 3.0 | 0.00 | 0.00 | 0.00 | 69 | 1003.7 |
| 20260504040514 | 52 | 207 | 0.0 | 3.0 | 0.00 | 0.00 | 0.00 | 69 | 1003.7 |
| 20260504040030 | 52 | 212 | 1.0 | 3.0 | 0.00 | 0.00 | 0.00 | 70 | 1003.8 |
| 20260504035513 | 52 | 201 | 1.0 | 3.0 | 0.00 | 0.00 | 0.00 | 70 | 1003.7 |
| 20260504035014 | 52 | 194 | 0.0 | 2.0 | 0.00 | 0.00 | 0.00 | 70 | 1003.9 |
| 20260504034529 | 52 | 206 | 0.0 | 2.0 | 0.00 | 0.00 | 0.00 | 70 | 1003.8 |
| 20260504034010 | 52 | 0 | 0.0 | 2.0 | 0.00 | 0.00 | 0.00 | 70 | 1003.9 |
| 20260504033510 | 52 | 0 | 0.0 | 2.0 | 0.00 | 0.00 | 0.00 | 69 | 1004.0 |
| 20260504033031 | 53 | 0 | 0.0 | 2.0 | 0.00 | 0.00 | 0.00 | 69 | 1004.1 |
| 20260504032513 | 53 | 188 | 0.0 | 2.0 | 0.00 | 0.00 | 0.00 | 69 | 1004.0 |
| 20260504032011 | 53 | 0 | 0.0 | 0.0 | 0.00 | 0.00 | 0.00 | 69 | 1004.1 |
| 20260504031532 | 53 | 0 | 0.0 | 2.0 | 0.00 | 0.00 | 0.00 | 69 | 1004.0 |
| 20260504031011 | 53 | 0 | 0.0 | 2.0 | 0.00 | 0.00 | 0.00 | 69 | 1004.1 |
| 20260504030511 | 53 | 0 | 0.0 | 2.0 | 0.00 | 0.00 | 0.00 | 68 | 1004.0 |
| 20260504030028 | 53 | 0 | 0.0 | 3.0 | 0.00 | 0.00 | 0.00 | 68 | 1004.0 |
| 20260504025514 | 53 | 0 | 0.0 | 3.0 | 0.00 | 0.00 | 0.00 | 68 | 1004.0 |
| 20260504025011 | 53 | 0 | 0.0 | 2.0 | 0.00 | 0.00 | 0.00 | 68 | 1003.9 |
| 20260504024530 | 53 | 0 | 0.0 | 2.0 | 0.00 | 0.00 | 0.00 | 67 | 1003.9 |
| 20260504024012 | 53 | 201 | 0.0 | 2.0 | 0.00 | 0.00 | 0.00 | 67 | 1003.9 |
| 20260504023510 | 54 | 0 | 0.0 | 1.0 | 0.00 | 0.00 | 0.00 | 66 | 1004.0 |
| 20260504023028 | 54 | 0 | 0.0 | 0.0 | 0.00 | 0.00 | 0.00 | 66 | 1003.9 |
| 20260504022514 | 54 | 0 | 0.0 | 0.0 | 0.00 | 0.00 | 0.00 | 65 | 1003.9 |
| 20260504022011 | 55 | 0 | 0.0 | 0.0 | 0.00 | 0.00 | 0.00 | 64 | 1003.8 |
| 20260504021532 | 55 | 0 | 0.0 | 0.0 | 0.00 | 0.00 | 0.00 | 64 | 1003.8 |
| 20260504021012 | 55 | 0 | 0.0 | 0.0 | 0.00 | 0.00 | 0.00 | 63 | 1003.8 |
| 20260504020510 | 56 | 0 | 0.0 | 0.0 | 0.00 | 0.00 | 0.00 | 62 | 1003.8 |
| 20260504020028 | 56 | 0 | 0.0 | 0.0 | 0.00 | 0.00 | 0.00 | 62 | 1003.8 |
| 20260504015514 | 57 | 0 | 0.0 | 0.0 | 0.00 | 0.00 | 0.00 | 61 | 1003.7 |
| 20260504015015 | 57 | 0 | 0.0 | 0.0 | 0.00 | 0.00 | 0.00 | 60 | 1003.7 |
| 20260504014534 | 58 | 0 | 0.0 | 1.0 | 0.00 | 0.00 | 0.00 | 59 | 1003.7 |
| 20260504014014 | 58 | 0 | 0.0 | 1.0 | 0.00 | 0.00 | 0.00 | 57 | 1003.7 |
| 20260504013513 | 59 | 0 | 0.0 | 1.0 | 0.00 | 0.00 | 0.00 | 56 | 1003.8 |
| 20260504013035 | 60 | 0 | 0.0 | 0.0 | 0.00 | 0.00 | 0.00 | 54 | 1003.8 |
| 20260504012511 | 61 | 0 | 0.0 | 1.0 | 0.00 | 0.00 | 0.00 | 53 | 1003.7 |
| 20260504012011 | 61 | 0 | 0.0 | 2.0 | 0.00 | 0.00 | 0.00 | 52 | 1003.7 |
| 20260504011532 | 62 | 0 | 0.0 | 3.0 | 0.00 | 0.00 | 0.00 | 51 | 1003.8 |
| 20260504011011 | 62 | 0 | 0.0 | 5.0 | 0.00 | 0.00 | 0.00 | 49 | 1003.7 |
| 20260504010510 | 63 | 246 | 0.0 | 6.0 | 0.00 | 0.00 | 0.00 | 49 | 1003.7 |
| 20260504010027 | 63 | 253 | 2.0 | 6.0 | 0.00 | 0.00 | 0.00 | 48 | 1003.6 |
| 20260504005513 | 64 | 197 | 1.0 | 7.0 | 0.00 | 0.00 | 0.00 | 48 | 1003.7 |
| 20260504005014 | 64 | 226 | 1.0 | 7.0 | 0.00 | 0.00 | 0.00 | 47 | 1003.6 |
| 20260504004530 | 64 | 216 | 2.0 | 7.0 | 0.00 | 0.00 | 0.00 | 46 | 1003.6 |
| 20260504004011 | 65 | 213 | 2.0 | 6.0 | 0.00 | 0.00 | 0.00 | 46 | 1003.6 |
| 20260504003511 | 65 | 257 | 2.0 | 11.0 | 0.00 | 0.00 | 0.00 | 46 | 1003.5 |
| 20260504003032 | 65 | 191 | 3.0 | 14.0 | 0.00 | 0.00 | 0.00 | 45 | 1003.5 |
| 20260504002514 | 66 | 244 | 3.0 | 14.0 | 0.00 | 0.00 | 0.00 | 45 | 1003.4 |
| 20260504002012 | 66 | 211 | 5.0 | 13.0 | 0.00 | 0.00 | 0.00 | 44 | 1003.3 |
| 20260504001531 | 66 | 263 | 5.0 | 14.0 | 0.00 | 0.00 | 0.00 | 44 | 1003.4 |
| 20260504001014 | 66 | 226 | 5.0 | 14.0 | 0.00 | 0.00 | 0.00 | 44 | 1003.4 |
| 20260504000513 | 66 | 238 | 7.0 | 14.0 | 0.00 | 0.00 | 0.00 | 44 | 1003.4 |
| 20260504000030 | 67 | 205 | 7.0 | 14.0 | 0.00 | 0.00 | 0.00 | 43 | 1003.3 |
| 20260503235515 | 67 | 227 | 5.0 | 14.0 | 0.00 | 0.00 | 0.00 | 43 | 1003.2 |
| 20260503235013 | 67 | 199 | 6.0 | 14.0 | 0.00 | 0.00 | 0.00 | 44 | 1003.4 |
| 20260503234546 | 67 | 216 | 6.0 | 13.0 | 0.00 | 0.00 | 0.00 | 43 | 1003.3 |
| 20260503234014 | 67 | 213 | 7.0 | 13.0 | 0.00 | 0.00 | 0.00 | 43 | 1003.2 |
| 20260503233514 | 68 | 260 | 6.0 | 13.0 | 0.00 | 0.00 | 0.00 | 42 | 1003.4 |
| 20260503233037 | 68 | 223 | 6.0 | 14.0 | 0.00 | 0.00 | 0.00 | 42 | 1003.4 |
| 20260503232514 | 68 | 208 | 7.0 | 14.0 | 0.00 | 0.00 | 0.00 | 42 | 1003.4 |
| 20260503232014 | 68 | 243 | 5.0 | 14.0 | 0.00 | 0.00 | 0.00 | 42 | 1003.4 |
| 20260503231533 | 68 | 259 | 4.0 | 14.0 | 0.00 | 0.00 | 0.00 | 42 | 1003.5 |
| 20260503231014 | 68 | 221 | 5.0 | 14.0 | 0.00 | 0.00 | 0.00 | 42 | 1003.5 |
| 20260503230515 | 68 | 258 | 5.0 | 16.0 | 0.00 | 0.00 | 0.00 | 42 | 1003.6 |
| 20260503230030 | 68 | 207 | 6.0 | 16.0 | 0.00 | 0.00 | 0.00 | 42 | 1003.7 |
| 20260503225513 | 68 | 260 | 6.0 | 16.0 | 0.00 | 0.00 | 0.00 | 42 | 1003.7 |
| 20260503225014 | 68 | 207 | 7.0 | 17.0 | 0.00 | 0.00 | 0.00 | 43 | 1003.8 |
| 20260503224532 | 68 | 188 | 6.0 | 18.0 | 0.00 | 0.00 | 0.00 | 42 | 1003.7 |
| 20260503224015 | 68 | 255 | 8.0 | 18.0 | 0.00 | 0.00 | 0.00 | 43 | 1003.8 |
| 20260503223515 | 68 | 207 | 7.0 | 18.0 | 0.00 | 0.00 | 0.00 | 42 | 1003.8 |
| 20260503223032 | 68 | 179 | 7.0 | 19.0 | 0.00 | 0.00 | 0.00 | 43 | 1003.8 |
| 20260503222514 | 67 | 180 | 4.0 | 19.0 | 0.00 | 0.00 | 0.00 | 43 | 1003.8 |
| 20260503222013 | 67 | 266 | 11.0 | 20.0 | 0.00 | 0.00 | 0.00 | 42 | 1003.9 |
| 20260503221536 | 67 | 235 | 8.0 | 20.0 | 0.00 | 0.00 | 0.00 | 43 | 1004.0 |
| 20260503221015 | 67 | 152 | 9.0 | 19.0 | 0.00 | 0.00 | 0.00 | 43 | 1004.0 |
| 20260503220514 | 67 | 217 | 7.0 | 31.0 | 0.00 | 0.00 | 0.00 | 43 | 1003.9 |
| 20260503220032 | 67 | 206 | 12.0 | 31.0 | 0.00 | 0.00 | 0.00 | 43 | 1004.1 |
| 20260503215515 | 68 | 243 | 8.0 | 24.0 | 0.00 | 0.00 | 0.00 | 43 | 1004.1 |
| 20260503215012 | 67 | 191 | 8.0 | 26.0 | 0.00 | 0.00 | 0.00 | 43 | 1004.1 |
| 20260503214530 | 67 | 153 | 10.0 | 26.0 | 0.00 | 0.00 | 0.00 | 43 | 1004.0 |
| 20260503214016 | 67 | 261 | 8.0 | 21.0 | 0.00 | 0.00 | 0.00 | 44 | 1004.0 |
| 20260503213515 | 67 | 225 | 11.0 | 22.0 | 0.00 | 0.00 | 0.00 | 43 | 1004.2 |
| 20260503213033 | 67 | 345 | 11.0 | 22.0 | 0.00 | 0.00 | 0.00 | 42 | 1004.4 |
| 20260503212515 | 67 | 209 | 9.0 | 19.0 | 0.00 | 0.00 | 0.00 | 43 | 1004.3 |
| 20260503212015 | 67 | 238 | 10.0 | 24.0 | 0.00 | 0.00 | 0.00 | 44 | 1004.4 |
| 20260503211530 | 67 | 171 | 13.0 | 24.0 | 0.00 | 0.00 | 0.00 | 43 | 1004.2 |
| 20260503211015 | 67 | 225 | 9.0 | 19.0 | 0.00 | 0.00 | 0.00 | 44 | 1004.3 |
| 20260503210515 | 67 | 150 | 9.0 | 19.0 | 0.00 | 0.00 | 0.00 | 44 | 1004.3 |
| 20260503210032 | 67 | 230 | 7.0 | 17.0 | 0.00 | 0.00 | 0.00 | 45 | 1004.5 |
| 20260503205514 | 67 | 218 | 8.0 | 20.0 | 0.00 | 0.00 | 0.00 | 47 | 1004.6 |
| 20260503205016 | 67 | 223 | 8.0 | 20.0 | 0.00 | 0.00 | 0.00 | 46 | 1004.8 |
| 20260503204530 | 66 | 219 | 5.0 | 21.0 | 0.00 | 0.00 | 0.00 | 50 | 1004.8 |
| 20260503204016 | 65 | 219 | 8.0 | 21.0 | 0.00 | 0.00 | 0.00 | 50 | 1004.8 |
| 20260503203515 | 65 | 115 | 7.0 | 19.0 | 0.00 | 0.00 | 0.00 | 50 | 1004.8 |
| 20260503203031 | 65 | 157 | 9.0 | 23.0 | 0.00 | 0.00 | 0.00 | 50 | 1005.2 |
| 20260503202513 | 65 | 285 | 10.0 | 23.0 | 0.00 | 0.00 | 0.00 | 50 | 1005.4 |
| 20260503202013 | 64 | 209 | 9.0 | 23.0 | 0.00 | 0.00 | 0.00 | 50 | 1005.5 |
| 20260503201530 | 64 | 170 | 12.0 | 28.0 | 0.00 | 0.00 | 0.00 | 49 | 1005.7 |
| 20260503201016 | 64 | 188 | 8.0 | 29.0 | 0.00 | 0.00 | 0.00 | 51 | 1005.7 |
| 20260503200519 | 63 | 184 | 12.0 | 29.0 | 0.00 | 0.00 | 0.00 | 49 | 1005.9 |
| 20260503200032 | 63 | 185 | 12.0 | 30.0 | 0.00 | 0.00 | 0.00 | 49 | 1006.0 |
| 20260503195512 | 64 | 224 | 14.0 | 30.0 | 0.00 | 0.00 | 0.00 | 47 | 1005.9 |
| 20260503195018 | 65 | 232 | 14.0 | 37.0 | 0.00 | 0.00 | 0.00 | 45 | 1005.9 |
| 20260503194530 | 65 | 217 | 15.0 | 37.0 | 0.00 | 0.00 | 0.00 | 44 | 1005.7 |
| 20260503194015 | 65 | 233 | 14.0 | 28.0 | 0.00 | 0.00 | 0.00 | 44 | 1005.8 |
| 20260503193518 | 65 | 232 | 12.0 | 28.0 | 0.00 | 0.00 | 0.00 | 43 | 1005.9 |
| 20260503193030 | 65 | 186 | 10.0 | 29.0 | 0.00 | 0.00 | 0.00 | 43 | 1005.9 |
| 20260503192514 | 66 | 245 | 14.0 | 29.0 | 0.00 | 0.00 | 0.00 | 42 | 1006.0 |
| 20260503192015 | 66 | 208 | 10.0 | 24.0 | 0.00 | 0.00 | 0.00 | 42 | 1005.9 |
| 20260503191534 | 65 | 219 | 9.0 | 22.0 | 0.00 | 0.00 | 0.00 | 45 | 1005.9 |
| 20260503191015 | 65 | 239 | 11.0 | 22.0 | 0.00 | 0.00 | 0.00 | 44 | 1006.0 |
| 20260503190516 | 65 | 188 | 10.0 | 24.0 | 0.00 | 0.00 | 0.00 | 45 | 1006.0 |
| 20260503190030 | 65 | 198 | 10.0 | 24.0 | 0.00 | 0.00 | 0.00 | 45 | 1006.1 |
| 20260503185515 | 64 | 196 | 8.0 | 25.0 | 0.00 | 0.00 | 0.00 | 44 | 1006.2 |
| 20260503185015 | 64 | 211 | 13.0 | 28.0 | 0.00 | 0.00 | 0.00 | 45 | 1006.4 |
| 20260503184528 | 64 | 184 | 10.0 | 28.0 | 0.00 | 0.00 | 0.00 | 47 | 1006.3 |
| 20260503184015 | 63 | 192 | 10.0 | 25.0 | 0.00 | 0.00 | 0.00 | 46 | 1006.5 |
| 20260503183514 | 63 | 225 | 12.0 | 31.0 | 0.00 | 0.00 | 0.00 | 45 | 1006.3 |
| 20260503183030 | 63 | 158 | 10.0 | 32.0 | 0.00 | 0.00 | 0.00 | 49 | 1006.5 |
| 20260503182512 | 62 | 184 | 12.0 | 32.0 | 0.00 | 0.00 | 0.00 | 50 | 1006.6 |
| 20260503182016 | 62 | 158 | 10.0 | 22.0 | 0.00 | 0.00 | 0.00 | 53 | 1006.8 |
| 20260503181530 | 62 | 173 | 8.0 | 22.0 | 0.00 | 0.00 | 0.00 | 54 | 1006.7 |
| 20260503181015 | 61 | 191 | 9.0 | 25.0 | 0.00 | 0.00 | 0.00 | 54 | 1006.8 |
| 20260503180516 | 61 | 175 | 11.0 | 25.0 | 0.00 | 0.00 | 0.00 | 53 | 1006.9 |
| 20260503180032 | 61 | 151 | 8.0 | 25.0 | 0.00 | 0.00 | 0.00 | 56 | 1006.9 |
| 20260503175516 | 60 | 270 | 7.0 | 27.0 | 0.00 | 0.00 | 0.00 | 55 | 1007.1 |
| 20260503175015 | 60 | 218 | 9.0 | 27.0 | 0.00 | 0.00 | 0.00 | 54 | 1007.1 |
| 20260503174532 | 60 | 209 | 10.0 | 26.0 | 0.00 | 0.00 | 0.00 | 55 | 1007.5 |
| 20260503174014 | 59 | 128 | 8.0 | 22.0 | 0.00 | 0.00 | 0.00 | 56 | 1007.4 |
| 20260503173514 | 59 | 202 | 11.0 | 22.0 | 0.00 | 0.00 | 0.00 | 56 | 1007.6 |
| 20260503173030 | 59 | 173 | 8.0 | 22.0 | 0.00 | 0.00 | 0.00 | 55 | 1007.7 |
| 20260503172516 | 59 | 202 | 9.0 | 22.0 | 0.00 | 0.00 | 0.00 | 57 | 1007.7 |
| 20260503172015 | 58 | 181 | 8.0 | 22.0 | 0.00 | 0.00 | 0.00 | 59 | 1007.8 |
| 20260503171531 | 57 | 227 | 10.0 | 20.0 | 0.00 | 0.00 | 0.00 | 58 | 1008.0 |
| 20260503171017 | 57 | 230 | 6.0 | 16.0 | 0.00 | 0.00 | 0.00 | 60 | 1008.0 |
| 20260503170515 | 57 | 182 | 7.0 | 19.0 | 0.00 | 0.00 | 0.00 | 61 | 1008.1 |
| 20260503151014 | 58 | 238 | 8.0 | 28.0 | 0.00 | 0.00 | 0.00 | 54 | 1009.4 |
| 20260503150514 | 58 | 221 | 9.0 | 28.0 | 0.00 | 0.00 | 0.00 | 53 | 1009.4 |
| 20260503131018 | 52 | 198 | 6.0 | 16.0 | 0.00 | 0.00 | 0.00 | 56 | 1010.5 |
| 20260503130514 | 51 | 268 | 7.0 | 17.0 | 0.00 | 0.00 | 0.00 | 57 | 1010.5 |
| 20260503110515 | 48 | 211 | 7.0 | 14.0 | 0.00 | 0.00 | 0.00 | 54 | 1010.3 |